Regional Weather Roundup
Issued by NWS Little Rock, AR

Home | Current Version | Previous Version | Graphics & Text | Print | Product List | Glossary On
Versions: 1 2 3 4 5 6 7 8 9 10 11 12 13 14 15 16 17 18 19 20 21 22 23 24 25 26 27 28 29 30 31 32 33 34 35 36 37 38 39 40 41 42 43 44 45 46 47 48 49 50
000
ASUS44 KLZK 221405
RWRLZK

WEATHER ROUNDUP FOR ARKANSAS
NATIONAL WEATHER SERVICE LITTLE ROCK AR
900 AM CDT MON SEP 22 2014

NOTE: "FAIR" INDICATES FEW OR NO CLOUDS BELOW 12,000 FEET WITH NO
SIGNIFICANT WEATHER AND/OR OBSTRUCTIONS TO VISIBILITY.

ARZ001-003-010-029-221500-
NORTHWEST ARKANSAS

CITY           SKY/WX    TMP DP  RH WIND       PRES   REMARKS
FAYETTEVILLE   SUNNY     56  53  90 CALM      30.30R
FORT SMITH     SUNNY     63  54  72 NE7       30.27R
HARRISON       SUNNY     59  52  77 NE5       30.30R
BENTONVILLE    SUNNY     61  52  72 E8        30.31R
ROGERS         SUNNY     59  51  75 E7        30.31R
SILOAM SPGS    SUNNY     61  48  63 E3        30.31R
HIGHFILL       SUNNY     59  52  77 NE3       30.30R
SPRINGDALE     SUNNY     59  54  82 NE8       30.32R
$$

ARZ004-005-016-221500-
NORTH CENTRAL ARKANSAS

CITY           SKY/WX    TMP DP  RH WIND       PRES   REMARKS
BATESVILLE     SUNNY     63  52  67 CALM      30.26R
FLIPPIN        SUNNY     61  48  63 NE3       30.29R
MTN HOME       SUNNY     60  51  72 E7        30.28R
$$

ARZ040-041-221500-
WEST CENTRAL ARKANSAS

CITY           SKY/WX    TMP DP  RH WIND       PRES   REMARKS
MENA           SUNNY     64  54  68 CALM      30.26R
MOUNT IDA      SUNNY     64  55  72 CALM      30.23R
$$

ARZ009-017-025-026-028-221500-
NORTHEAST ARKANSAS

CITY           SKY/WX    TMP DP  RH WIND       PRES   REMARKS
CORNING          N/A     61  54  77 N6        30.26R
JONESBORO      SUNNY     65  52  62 NE9       30.24R
NEWPORT        SUNNY     63  53  69 NE15      30.26R
WALNUT RIDGE   SUNNY     61  30  31 N10       30.24R
BLYTHEVILLE    SUNNY     63  56  78 NE9       30.23R
NW BLYTHEVILLE SUNNY     61  54  77 N13       30.24R
$$

ARZ022-023-033-042-044-221500-
CENTRAL ARKANSAS

CITY           SKY/WX    TMP DP  RH WIND       PRES   REMARKS
LITTLE ROCK    SUNNY     66  50  56 NE13      30.25R
N LITTLE ROCK  SUNNY     65  55  69 NE9G16    30.25R
JACKSONVILLE   SUNNY     66  52  61 NE7       30.24S
SEARCY         SUNNY     65  53  65 NE10      30.26R
HOT SPRINGS    SUNNY     67  51  56 NE12      30.24S
RUSSELLVILLE   SUNNY     66  54  65 NE6       30.27R
CLINTON        FAIR      64  55  72 CALM      30.28R
$$

ARZ036-221500-
EAST ARKANSAS

CITY           SKY/WX    TMP DP  RH WIND       PRES   REMARKS
WEST MEMPHIS   SUNNY     63  55  75 N13       30.21R
$$

ARZ050-053-066-070-073-221500-
SOUTHWEST ARKANSAS

CITY           SKY/WX    TMP DP  RH WIND       PRES   REMARKS
ARKADELPHIA    FAIR      67  55  65 NE9       30.23R
CAMDEN         SUNNY     66  54  63 NE8       30.21R
TEXARKANA      SUNNY     66  54  65 NE8       30.21R
EL DORADO      SUNNY     68  54  60 NE10      30.20R
DE QUEEN       SUNNY     68  56  65 NE6       30.22R
$$

ARZ056-057-069-221500-
SOUTHEAST ARKANSAS

CITY           SKY/WX    TMP DP  RH WIND       PRES   REMARKS
PINE BLUFF     SUNNY     65  53  65 N10       30.22R
STUTTGART      SUNNY     64  54  68 N12       30.23S
MONTICELLO     SUNNY     67  53  61 NE8       30.19R

$$




USA.gov is the U.S. government's official web portal to all federal, state and local government web resources and services.